• In Romania
  • List of Countries
  • For 7 days
  • Water Temperature
  • Satellite Maps
  • Weather Map
  • Weather Widgets
  • user-avatar
    Login

    Hourly Weather Yulara

    Today, 22 November, Wednesday

    Time Temperature Precipitation Wind Pressure Humidity
    00:00 +32°C° 0 mm 5 mps 713 mmHg 14%
    01:00 +30°C° 0 mm 5 mps 713 mmHg 15%
    02:00 +30°C° 0 mm 4 mps 712 mmHg 15%
    03:00 +29°C° 0 mm 4 mps 712 mmHg 15%
    04:00 +29°C° 0 mm 4 mps 712 mmHg 17%
    05:00 +29°C° 0 mm 5 mps 713 mmHg 19%
    06:00 +28°C° 0 mm 5 mps 713 mmHg 21%
    07:00 +30°C° 0 mm 5 mps 713 mmHg 21%
    08:00 +33°C° 0 mm 5 mps 714 mmHg 20%
    09:00 +34°C° 0 mm 5 mps 715 mmHg 25%
    10:00 +36°C° 0 mm 4 mps 714 mmHg 22%
    11:00 +37°C° 0 mm 4 mps 714 mmHg 19%
    12:00 +38°C° 0 mm 3 mps 714 mmHg 16%
    13:00 +39°C° 0 mm 3 mps 713 mmHg 15%
    14:00 +39°C° 0 mm 3 mps 713 mmHg 14%
    15:00 +40°C° 0 mm 4 mps 712 mmHg 15%
    16:00 +40°C° 0 mm 5 mps 712 mmHg 15%
    17:00 +40°C° 0 mm 5 mps 712 mmHg 16%
    18:00 +39°C° 0 mm 6 mps 712 mmHg 17%
    19:00 +36°C° 0 mm 7 mps 713 mmHg 21%
    20:00 +35°C° 0 mm 8 mps 713 mmHg 24%
    21:00 +33°C° 0 mm 9 mps 713 mmHg 28%
    22:00 +32°C° 0 mm 9 mps 714 mmHg 32%
    23:00 +29°C° 0 mm 10 mps 714 mmHg 36%

    Tomorrow, 23 November, Thursday

    Time Temperature Precipitation Wind Pressure Humidity
    00:00 +28°C° 0 mm 10 mps 714 mmHg 40%
    01:00 +27°C° 0 mm 10 mps 714 mmHg 44%
    02:00 +24°C° 0 mm 9 mps 714 mmHg 48%
    03:00 +23°C° 0 mm 9 mps 714 mmHg 52%
    04:00 +23°C° 0 mm 9 mps 714 mmHg 52%
    05:00 +22°C° 0 mm 8 mps 715 mmHg 52%
    06:00 +22°C° 0 mm 8 mps 715 mmHg 52%
    07:00 +23°C° 0 mm 8 mps 715 mmHg 46%
    08:00 +26°C° 0 mm 8 mps 716 mmHg 39%
    09:00 +27°C° 0 mm 8 mps 716 mmHg 33%
    10:00 +29°C° 0 mm 7 mps 716 mmHg 30%
    11:00 +30°C° 0 mm 6 mps 715 mmHg 27%
    12:00 +33°C° 0 mm 5 mps 715 mmHg 25%
    13:00 +34°C° 0 mm 5 mps 715 mmHg 23%
    14:00 +34°C° 0 mm 4 mps 714 mmHg 22%
    15:00 +35°C° 0 mm 3 mps 714 mmHg 20%
    16:00 +35°C° 0 mm 4 mps 714 mmHg 20%
    17:00 +35°C° 0 mm 5 mps 713 mmHg 20%
    18:00 +34°C° 0 mm 6 mps 713 mmHg 19%
    19:00 +33°C° 0 mm 7 mps 714 mmHg 21%
    20:00 +32°C° 0 mm 7 mps 714 mmHg 22%
    21:00 +29°C° 0 mm 8 mps 714 mmHg 24%
    22:00 +28°C° 0 mm 9 mps 714 mmHg 28%
    23:00 +27°C° 0 mm 9 mps 715 mmHg 33%

    Day after tomorrow, 24 November, Friday

    Time Temperature Precipitation Wind Pressure Humidity
    00:00 +26°C° 0 mm 9 mps 715 mmHg 38%
    01:00 +24°C° 0 mm 8 mps 715 mmHg 42%
    02:00 +23°C° 0 mm 8 mps 715 mmHg 45%
    03:00 +23°C° 0 mm 7 mps 715 mmHg 48%
    04:00 +22°C° 0 mm 7 mps 715 mmHg 50%
    05:00 +22°C° 0 mm 7 mps 716 mmHg 51%
    06:00 +22°C° 0 mm 6 mps 716 mmHg 52%
    07:00 +24°C° 0 mm 6 mps 716 mmHg 47%
    08:00 +26°C° 0 mm 6 mps 717 mmHg 43%
    09:00 +28°C° 0 mm 6 mps 717 mmHg 38%
    10:00 +29°C° 0 mm 5 mps 717 mmHg 34%
    11:00 +32°C° 0 mm 4 mps 716 mmHg 30%
    12:00 +34°C° 0 mm 3 mps 716 mmHg 26%
    13:00 +34°C° 0 mm 3 mps 715 mmHg 24%
    14:00 +35°C° 0 mm 2 mps 714 mmHg 22%
    15:00 +35°C° 0 mm 1 mps 714 mmHg 20%
    16:00 +35°C° 0 mm 1 mps 714 mmHg 19%
    17:00 +36°C° 0 mm 1 mps 714 mmHg 18%
    18:00 +36°C° 0 mm 1 mps 714 mmHg 18%
    19:00 +36°C° 0 mm 2 mps 714 mmHg 19%
    20:00 +35°C° 0 mm 3 mps 714 mmHg 20%
    21:00 +34°C° 0 mm 4 mps 714 mmHg 21%
    22:00 +33°C° 0 mm 5 mps 714 mmHg 22%
    23:00 +32°C° 0 mm 6 mps 714 mmHg 23%

    25 November, Saturday

    Time Temperature Precipitation Wind Pressure Humidity
    00:00 +32°C° 0 mm 7 mps 714 mmHg 23%
    01:00 +30°C° 0 mm 7 mps 714 mmHg 23%
    02:00 +29°C° 0 mm 7 mps 714 mmHg 24%
    03:00 +29°C° 0 mm 7 mps 713 mmHg 24%
    04:00 +28°C° 0 mm 6 mps 714 mmHg 25%
    05:00 +28°C° 0 mm 6 mps 714 mmHg 26%
    06:00 +28°C° 0 mm 6 mps 714 mmHg 27%
    07:00 +30°C° 0 mm 7 mps 715 mmHg 29%
    08:00 +32°C° 0 mm 8 mps 715 mmHg 32%
    09:00 +34°C° 0 mm 9 mps 715 mmHg 34%
    10:00 +37°C° 0 mm 8 mps 715 mmHg 32%
    11:00 +38°C° 0 mm 8 mps 714 mmHg 29%
    12:00 +39°C° 0 mm 7 mps 714 mmHg 27%
    13:00 +40°C° 0 mm 6 mps 713 mmHg 25%
    14:00 +40°C° 0 mm 6 mps 712 mmHg 23%
    15:00 +40°C° 0 mm 5 mps 711 mmHg 20%
    16:00 +36°C° 1.6 mm 7 mps 711 mmHg 31%
    17:00 +33°C° 1.6 mm 8 mps 712 mmHg 41%
    18:00 +29°C° 1.6 mm 10 mps 713 mmHg 52%
    19:00 +29°C° 1.2 mm 8 mps 713 mmHg 52%
    20:00 +28°C° 1.2 mm 7 mps 714 mmHg 53%
    21:00 +28°C° 1.2 mm 5 mps 715 mmHg 54%
    22:00 +28°C° 0 mm 4 mps 714 mmHg 55%
    23:00 +28°C° 0 mm 4 mps 714 mmHg 55%

    26 November, Sunday

    Time Temperature Precipitation Wind Pressure Humidity
    00:00 +27°C° 0 mm 3 mps 714 mmHg 56%
    01:00 +27°C° 0 mm 3 mps 714 mmHg 58%
    02:00 +27°C° 0 mm 3 mps 713 mmHg 60%
    03:00 +26°C° 0 mm 2 mps 713 mmHg 61%
    04:00 +26°C° 0 mm 3 mps 713 mmHg 63%
    05:00 +26°C° 0 mm 3 mps 714 mmHg 64%
    06:00 +26°C° 0 mm 3 mps 714 mmHg 65%
    07:00 +27°C° 0 mm 3 mps 714 mmHg 60%
    08:00 +28°C° 0 mm 4 mps 714 mmHg 54%
    09:00 +30°C° 0 mm 4 mps 715 mmHg 48%
    10:00 +31°C° 0 mm 3 mps 715 mmHg 43%
    11:00 +33°C° 0 mm 3 mps 714 mmHg 39%
    12:00 +35°C° 0 mm 2 mps 714 mmHg 34%
    13:00 +35°C° 0 mm 2 mps 714 mmHg 31%
    14:00 +36°C° 0 mm 2 mps 713 mmHg 29%
    15:00 +36°C° 0 mm 2 mps 712 mmHg 27%
    16:00 +36°C° 0 mm 3 mps 713 mmHg 26%
    17:00 +36°C° 0 mm 4 mps 713 mmHg 26%
    18:00 +36°C° 0 mm 5 mps 713 mmHg 26%
    19:00 +35°C° 0 mm 5 mps 714 mmHg 29%
    20:00 +34°C° 0 mm 6 mps 714 mmHg 32%
    21:00 +33°C° 0 mm 7 mps 714 mmHg 35%
    22:00 +32°C° 0 mm 7 mps 714 mmHg 40%
    23:00 +31°C° 0 mm 8 mps 714 mmHg 45%

    27 November, Monday

    Time Temperature Precipitation Wind Pressure Humidity
    00:00 +31°C° 0 mm 8 mps 714 mmHg 49%
    01:00 +29°C° 0 mm 8 mps 714 mmHg 51%
    02:00 +29°C° 0 mm 7 mps 714 mmHg 52%
    03:00 +28°C° 0 mm 7 mps 713 mmHg 53%
    04:00 +28°C° 0 mm 7 mps 714 mmHg 52%
    05:00 +28°C° 0 mm 6 mps 714 mmHg 51%
    06:00 +28°C° 0 mm 6 mps 714 mmHg 50%
    07:00 +29°C° 0 mm 7 mps 715 mmHg 46%
    08:00 +30°C° 0 mm 7 mps 715 mmHg 41%
    09:00 +33°C° 0 mm 7 mps 716 mmHg 36%
    10:00 +34°C° 0 mm 7 mps 715 mmHg 33%
    11:00 +35°C° 0 mm 6 mps 715 mmHg 30%
    12:00 +36°C° 0 mm 5 mps 714 mmHg 26%
    13:00 +36°C° 0 mm 6 mps 714 mmHg 27%
    14:00 +36°C° 0 mm 6 mps 713 mmHg 27%
    15:00 +36°C° 0 mm 6 mps 713 mmHg 27%
    16:00 +36°C° 0 mm 6 mps 713 mmHg 28%
    17:00 +35°C° 0 mm 6 mps 713 mmHg 29%
    18:00 +35°C° 0 mm 6 mps 713 mmHg 30%
    19:00 +34°C° 0 mm 6 mps 713 mmHg 31%
    20:00 +34°C° 0 mm 5 mps 714 mmHg 32%
    21:00 +33°C° 0 mm 5 mps 714 mmHg 32%
    22:00 +32°C° 0 mm 5 mps 714 mmHg 35%
    23:00 +32°C° 0 mm 5 mps 714 mmHg 38%
    Show more